Regional Weather Roundup
Issued by NWS

Home | Current Version | Previous Version | Text Only | Print | Product List | Glossary Off
Versions: 1 2 3 4 5 6 7 8 9 10 11 12 13 14 15 16 17 18 19 20 21 22 23 24 25 26 27 28 29 30 31 32 33 34 35 36 37 38 39 40 41 42 43 44 45 46 47 48 49 50

000
ASUS43 KOAX 251302
RWRNE

WEATHER ROUNDUP FOR NEBRASKA
NATIONAL WEATHER SERVICE OMAHA NE
800 AM CDT SAT OCT 25 2014

NOTES: SATELLITE DATA IS BEING USED TO AUGMENT CLOUD COVER ABOVE
       12000 FEET.
       "FAIR" INDICATES FEW OR NO CLOUDS BELOW 12,000 FEET WITH NO
       SIGNIFICANT WEATHER AND/OR OBSTRUCTIONS TO VISIBILITY.

  * THESE STATIONS DO NOT REPORT WEATHER SUCH AS RAIN...SNOW OR FOG.

NEZ001>004-019>022-054>056-251400-
NEBRASKA PANHANDLE

CITY           SKY/WX    TMP DP  RH WIND       PRES   REMARKS
SCOTTSBLUFF    CLEAR     37  32  82 CALM      30.17R
ALLIANCE       CLEAR     28  25  88 W7        30.16R WCI  21
CHADRON        CLEAR     30  28  92 SW6       30.18R WCI  24
KIMBALL        CLEAR     38  29  69 W8        30.17R WCI  32
SIDNEY         CLEAR     38  29  70 NW7       30.17R WCI  33
$$

NEZ057>060-069>072-079>082-251400-
SOUTHWEST NEBRASKA

CITY           SKY/WX    TMP DP  RH WIND       PRES   REMARKS
NORTH PLATTE   CLEAR     34  32  92 CALM      30.11S
IMPERIAL       CLEAR     41  32  70 N3        30.13R
LEXINGTON      CLEAR     39  37  92 CALM      30.11S
MCCOOK         CLEAR     39  34  82 W3        30.10R
OGALLALA       CLEAR     38  34  88 CALM      30.12R
$$

NEZ005>010-023>029-035>040-094-251400-
NORTH CENTRAL NEBRASKA

CITY           SKY/WX    TMP DP  RH WIND       PRES   REMARKS
VALENTINE      CLEAR     35  31  85 NW5       30.15R WCI  31
AINSWORTH      CLEAR     39  32  75 CALM      30.14R
BROKEN BOW     CLEAR     43  38  82 CALM      30.11S
O`NEILL        CLEAR     45  38  77 NE7       30.13S
ORD            CLEAR     45  37  73 CALM      30.10S
THEDFORD       CLEAR     35  33  92 W3        30.14S
$$

NEZ041-046>049-061>064-073>077-083>087-251400-
SOUTH CENTRAL NEBRASKA

CITY           SKY/WX    TMP DP  RH WIND       PRES   REMARKS
GRAND ISLAND   CLEAR     43  40  89 NW6       30.11R
AURORA         CLEAR     44  41  88 N5        30.10R
HASTINGS       CLEAR     44  39  82 N3        30.09R
HEBRON         CLEAR     45  43  94 CALM      30.08R FOG
HOLDREGE       CLEAR     43  40  91 CALM      30.10R
KEARNEY *      CLEAR     43  39  87 NW6       30.11R
YORK           CLEAR     45  41  87 MISG      30.10R
$$

NEZ011>018-030>034-042>045-251400-
NORTHEAST NEBRASKA

CITY           SKY/WX    TMP DP  RH WIND       PRES   REMARKS
NORFOLK        CLEAR     43  39  86 W5        30.11R
ALBION         CLEAR     40  36  85 NW5       30.11S
BLAIR          CLEAR     53  45  73 N10       30.07R
COLUMBUS *     CLEAR     46  37  71 NW3       30.11R
FREMONT        CLEAR     44  42  91 W5        30.09R
TEKAMAH        CLEAR     43  40  89 N6        30.09R
WAYNE          CLEAR     42  39  90 CALM      30.12R
$$

NEZ050>053-065>068-078-088>093-251400-
SOUTHEAST NEBRASKA

CITY           SKY/WX    TMP DP  RH WIND       PRES   REMARKS
LINCOLN        CLEAR     45  42  89 N6        30.10R
OMAHA EPPLEY   CLEAR     47  45  93 N7        30.09R
BEATRICE       CLEAR     42  42  98 NW3       30.07S
FALLS CITY     PTCLDY    49  48  97 CALM      30.06R FOG
NEBRASKA CITY  CLEAR     51  45  80 N3        30.07R
PLATTSMOUTH    CLEAR     49  45  87 W3        30.08R
$$

NEZ044-045-051>053-067-251400-
OMAHA AREA

CITY           SKY/WX    TMP DP  RH WIND       PRES   REMARKS
OMAHA EPPLEY   CLEAR     47  45  93 N7        30.09R
BLAIR          CLEAR     53  45  73 N10       30.07R
FREMONT        CLEAR     44  42  91 W5        30.09R
OFFUTT AFB     FOG       43  43 100 CALM      30.08R VSB 1
PLATTSMOUTH    CLEAR     49  45  87 W3        30.08R
WAHOO          FAIR      47  43  86 NW5       30.09R
$$



USA.gov is the U.S. government's official web portal to all federal, state and local government web resources and services.